Terminal Aerodrome Forecast
Issued by NWS Wilmington, OH

Current Version | Previous Version | Text Only | Print | Product List | Glossary Off
Versions: 1 2 3 4 5 6 7 8 9 10 11 12 13 14 15 16 17 18 19 20 21

014
FTUS41 KILN 200345 AAA
TAFDAY
TAF AMD
KDAY 200345Z 2004/2024 20010G20KT P6SM BKN050 BKN200
     FM200600 20012G20KT P6SM BKN025
     FM201500 20015G25KT P6SM BKN040
     FM201700 21018G32KT P6SM BKN040=

USA.gov is the U.S. government's official web portal to all federal, state and local government web resources and services.